Time,TemperatureF,DewpointF,PressureIn,WindDirection,WindDirectionDegrees,WindSpeedMPH,WindSpeedGustMPH,Humidity,HourlyPrecipIn,Conditions,Clouds,dailyrainin,SoftwareType,DateUTC
2013-01-19 00:03:00,37.3,27.7,30.32,NE,43,0.0,0.0,68,0.00,RA,,0.00,WeatherDisplay:10.37,2013-01-19 06:03:00,
2013-01-19 00:08:00,37.0,27.4,30.32,NE,43,0.0,0.0,68,0.00,RA,,0.00,WeatherDisplay:10.37,2013-01-19 06:08:00,
2013-01-19 00:13:00,36.8,27.2,30.32,NE,43,0.0,0.0,68,0.00,,,0.00,WeatherDisplay:10.37,2013-01-19 06:13:00,
2013-01-19 00:18:00,36.5,27.3,30.32,NE,43,0.0,0.0,69,0.00,,,0.00,WeatherDisplay:10.37,2013-01-19 06:18:00,
2013-01-19 00:23:00,36.2,27.0,30.32,NE,43,0.0,0.0,69,0.00,,,0.00,WeatherDisplay:10.37,2013-01-19 06:23:00,
2013-01-19 00:28:00,36.0,27.2,30.32,NE,43,0.0,0.0,70,0.00,,,0.00,WeatherDisplay:10.37,2013-01-19 06:28:00,
2013-01-19 00:33:00,35.9,27.4,30.32,NE,43,0.0,0.0,71,0.00,,,0.00,WeatherDisplay:10.37,2013-01-19 06:33:00,
2013-01-19 00:38:00,35.8,27.3,30.32,NE,43,0.0,0.0,71,0.00,,,0.00,WeatherDisplay:10.37,2013-01-19 06:38:00,
2013-01-19 00:43:00,35.8,27.7,30.32,NE,43,0.0,0.0,72,0.00,,,0.00,WeatherDisplay:10.37,2013-01-19 06:43:00,
2013-01-19 00:48:00,35.6,27.5,30.32,NE,43,0.0,0.0,72,0.00,,,0.00,WeatherDisplay:10.37,2013-01-19 06:48:00,
2013-01-19 00:53:00,35.6,27.5,30.32,NE,43,0.0,0.0,72,0.00,,,0.00,WeatherDisplay:10.37,2013-01-19 06:53:00,
2013-01-19 00:58:00,35.8,27.7,30.32,NE,43,0.0,0.0,72,0.00,,,0.00,WeatherDisplay:10.37,2013-01-19 06:58:00,
2013-01-19 01:03:00,35.8,27.7,30.32,NE,43,0.0,0.0,72,0.00,,,0.00,WeatherDisplay:10.37,2013-01-19 07:03:00,
2013-01-19 01:08:00,35.6,27.5,30.32,NE,43,0.0,0.0,72,0.00,,,0.00,WeatherDisplay:10.37,2013-01-19 07:08:00,
2013-01-19 01:13:00,35.8,27.7,30.32,NE,43,0.0,0.0,72,0.00,,,0.00,WeatherDisplay:10.37,2013-01-19 07:13:00,
2013-01-19 01:18:00,35.8,27.7,30.32,NE,43,0.0,0.0,72,0.00,,,0.00,WeatherDisplay:10.37,2013-01-19 07:18:00,
2013-01-19 01:23:00,35.8,27.7,30.32,NE,43,0.0,0.0,72,0.00,,,0.00,WeatherDisplay:10.37,2013-01-19 07:23:00,
2013-01-19 01:28:00,35.8,27.7,30.32,NE,43,0.0,0.0,72,0.00,,,0.00,WeatherDisplay:10.37,2013-01-19 07:28:00,
2013-01-19 01:33:00,35.8,27.7,30.33,NE,43,0.0,0.0,72,0.00,,,0.00,WeatherDisplay:10.37,2013-01-19 07:33:00,
2013-01-19 01:38:00,35.8,27.7,30.33,NE,43,0.0,0.0,72,0.00,,,0.00,WeatherDisplay:10.37,2013-01-19 07:38:00,
2013-01-19 01:43:00,35.6,27.1,30.33,NE,43,0.0,0.0,71,0.00,,,0.00,WeatherDisplay:10.37,2013-01-19 07:43:00,
2013-01-19 01:48:00,35.5,27.4,30.33,NE,43,0.0,0.0,72,0.00,,,0.00,WeatherDisplay:10.37,2013-01-19 07:48:00,
2013-01-19 01:53:00,35.5,27.4,30.33,NE,43,0.0,0.0,72,0.00,,,0.00,WeatherDisplay:10.37,2013-01-19 07:53:00,
2013-01-19 01:58:00,35.5,27.4,30.33,NE,43,0.0,0.0,72,0.00,,,0.00,WeatherDisplay:10.37,2013-01-19 07:58:00,
2013-01-19 02:03:00,35.6,27.5,30.33,NE,43,0.2,1.1,72,0.00,,,0.00,WeatherDisplay:10.37,2013-01-19 08:03:00,
2013-01-19 02:08:00,35.8,27.3,30.33,NE,43,0.0,0.0,71,0.00,,,0.00,WeatherDisplay:10.37,2013-01-19 08:08:00,
2013-01-19 02:13:00,36.0,27.5,30.33,NE,43,0.0,0.0,71,0.00,,,0.00,WeatherDisplay:10.37,2013-01-19 08:13:00,
2013-01-19 02:18:00,36.2,27.7,30.33,NE,43,0.0,0.0,71,0.00,,,0.00,WeatherDisplay:10.37,2013-01-19 08:18:00,
2013-01-19 02:23:00,36.3,27.8,30.33,NE,43,0.0,0.0,71,0.00,,,0.00,WeatherDisplay:10.37,2013-01-19 08:23:00,
2013-01-19 02:28:00,36.2,27.7,30.33,NE,43,0.0,0.0,71,0.00,,,0.00,WeatherDisplay:10.37,2013-01-19 08:28:00,
2013-01-19 02:33:00,36.0,27.5,30.33,NE,43,0.0,0.0,71,0.00,,,0.00,WeatherDisplay:10.37,2013-01-19 08:33:00,
2013-01-19 02:38:00,35.9,27.4,30.33,NE,43,0.0,0.0,71,0.00,,,0.00,WeatherDisplay:10.37,2013-01-19 08:38:00,
2013-01-19 02:43:00,35.8,27.3,30.33,NE,43,0.0,0.0,71,0.00,,,0.00,WeatherDisplay:10.37,2013-01-19 08:43:00,
2013-01-19 02:48:00,35.8,27.7,30.33,NE,43,0.0,0.0,72,0.00,,,0.00,WeatherDisplay:10.37,2013-01-19 08:48:00,
2013-01-19 02:53:00,35.6,27.5,30.33,NE,43,0.0,0.0,72,0.00,,,0.00,WeatherDisplay:10.37,2013-01-19 08:53:00,
2013-01-19 02:58:00,35.3,27.5,30.33,NE,43,0.0,0.0,73,0.00,,,0.00,WeatherDisplay:10.37,2013-01-19 08:58:00,
2013-01-19 03:03:00,35.2,27.4,30.33,NE,43,0.0,0.0,73,0.00,,,0.00,WeatherDisplay:10.37,2013-01-19 09:03:00,
2013-01-19 03:08:00,34.9,27.1,30.33,NE,43,0.0,0.0,73,0.00,,,0.00,WeatherDisplay:10.37,2013-01-19 09:08:00,
2013-01-19 03:13:00,34.7,27.3,30.33,NE,43,0.0,0.0,74,0.00,,,0.00,WeatherDisplay:10.37,2013-01-19 09:13:00,
2013-01-19 03:18:00,34.4,27.0,30.33,NE,43,0.0,0.0,74,0.00,,,0.00,WeatherDisplay:10.37,2013-01-19 09:18:00,
2013-01-19 03:23:00,34.3,27.2,30.33,NE,43,0.0,0.0,75,0.00,,,0.00,WeatherDisplay:10.37,2013-01-19 09:23:00,
2013-01-19 03:28:00,34.1,27.0,30.33,NE,43,0.0,0.0,75,0.00,,,0.00,WeatherDisplay:10.37,2013-01-19 09:28:00,
2013-01-19 03:33:00,34.1,27.3,30.32,NE,43,0.0,0.0,76,0.00,,,0.00,WeatherDisplay:10.37,2013-01-19 09:33:00,
2013-01-19 03:38:00,34.1,27.3,30.32,NE,43,0.0,0.0,76,0.00,,,0.00,WeatherDisplay:10.37,2013-01-19 09:38:00,
2013-01-19 03:43:00,34.0,27.5,30.32,NE,43,0.0,0.0,77,0.00,,,0.00,WeatherDisplay:10.37,2013-01-19 09:43:00,
2013-01-19 03:48:00,34.0,27.5,30.32,NE,43,0.0,0.0,77,0.00,,,0.00,WeatherDisplay:10.37,2013-01-19 09:48:00,
2013-01-19 03:53:00,33.8,27.4,30.32,NE,43,0.0,0.0,77,0.00,,,0.00,WeatherDisplay:10.37,2013-01-19 09:53:00,
2013-01-19 03:58:00,33.8,27.7,30.32,NE,43,0.0,0.0,78,0.00,,,0.00,WeatherDisplay:10.37,2013-01-19 09:58:00,
2013-01-19 04:03:00,33.8,27.7,30.32,NE,43,0.0,0.0,78,0.00,,,0.00,WeatherDisplay:10.37,2013-01-19 10:03:00,
2013-01-19 04:08:00,34.0,27.9,30.32,NE,43,0.0,0.0,78,0.00,,,0.00,WeatherDisplay:10.37,2013-01-19 10:08:00,
2013-01-19 04:13:00,33.8,27.7,30.32,NE,43,0.0,0.0,78,0.00,,,0.00,WeatherDisplay:10.37,2013-01-19 10:13:00,
2013-01-19 04:18:00,33.7,27.6,30.32,NE,43,0.0,0.0,78,0.00,,,0.00,WeatherDisplay:10.37,2013-01-19 10:18:00,
2013-01-19 04:23:00,33.7,27.6,30.32,NE,43,0.0,0.0,78,0.00,,,0.00,WeatherDisplay:10.37,2013-01-19 10:23:00,
2013-01-19 04:28:00,33.7,27.6,30.32,NE,43,0.0,0.0,78,0.00,,,0.00,WeatherDisplay:10.37,2013-01-19 10:28:00,
2013-01-19 04:33:00,33.5,27.4,30.32,NE,43,0.0,0.0,78,0.00,,,0.00,WeatherDisplay:10.37,2013-01-19 10:33:00,
2013-01-19 04:38:00,33.5,27.4,30.32,NE,43,0.0,0.0,78,0.00,,,0.00,WeatherDisplay:10.37,2013-01-19 10:38:00,
2013-01-19 04:43:00,33.4,27.3,30.32,NE,43,0.0,0.0,78,0.00,,,0.00,WeatherDisplay:10.37,2013-01-19 10:43:00,
2013-01-19 04:48:00,33.4,27.3,30.32,NE,43,0.0,0.0,78,0.00,,,0.00,WeatherDisplay:10.37,2013-01-19 10:48:00,
2013-01-19 04:53:00,33.2,27.1,30.32,NE,43,0.0,0.0,78,0.00,,,0.00,WeatherDisplay:10.37,2013-01-19 10:53:00,
2013-01-19 04:58:00,33.2,27.4,30.32,NE,43,0.0,0.0,79,0.00,,,0.00,WeatherDisplay:10.37,2013-01-19 10:58:00,
2013-01-19 05:03:00,33.4,27.6,30.32,NE,43,0.0,0.0,79,0.00,,,0.00,WeatherDisplay:10.37,2013-01-19 11:03:00,
2013-01-19 05:08:00,33.4,27.3,30.32,NE,43,0.0,0.0,78,0.00,,,0.00,WeatherDisplay:10.37,2013-01-19 11:08:00,
2013-01-19 05:13:00,33.4,27.3,30.32,NE,43,0.0,0.0,78,0.00,,,0.00,WeatherDisplay:10.37,2013-01-19 11:13:00,
2013-01-19 06:47:00,33.1,26.7,30.31,NE,43,0.0,0.0,77,0.00,,,0.00,WeatherDisplay:10.37,2013-01-19 12:47:00,
2013-01-19 06:48:00,33.1,26.7,30.31,NE,43,0.0,0.0,77,0.00,,,0.00,WeatherDisplay:10.37,2013-01-19 12:48:00,
2013-01-19 06:53:00,33.2,26.8,30.31,NE,43,0.0,0.0,77,0.00,,,0.00,WeatherDisplay:10.37,2013-01-19 12:53:00,
2013-01-19 06:58:00,33.2,26.8,30.31,NE,43,0.0,0.0,77,0.00,,,0.00,WeatherDisplay:10.37,2013-01-19 12:58:00,
2013-01-19 07:03:00,33.4,26.6,30.32,NE,43,0.0,0.0,76,0.00,,,0.00,WeatherDisplay:10.37,2013-01-19 13:03:00,
2013-01-19 07:08:00,33.4,26.6,30.32,NE,43,0.0,0.0,76,0.00,,,0.00,WeatherDisplay:10.37,2013-01-19 13:08:00,
2013-01-19 07:13:00,33.5,26.7,30.32,ENE,63,0.0,0.0,76,0.00,,,0.00,WeatherDisplay:10.37,2013-01-19 13:13:00,
2013-01-19 07:18:00,33.5,26.7,30.32,ENE,63,0.0,0.0,76,0.00,,,0.00,WeatherDisplay:10.37,2013-01-19 13:18:00,
2013-01-19 07:23:00,33.5,26.7,30.32,WSW,252,0.0,0.0,76,0.00,,,0.00,WeatherDisplay:10.37,2013-01-19 13:23:00,
2013-01-19 07:28:00,33.7,26.6,30.32,WSW,252,0.0,0.0,75,0.00,,,0.00,WeatherDisplay:10.37,2013-01-19 13:28:00,
2013-01-19 07:33:00,34.0,26.9,30.32,WSW,252,0.0,0.0,75,0.00,,,0.00,WeatherDisplay:10.37,2013-01-19 13:33:00,
2013-01-19 07:38:00,34.3,27.2,30.32,WSW,252,0.0,1.1,75,0.00,,,0.00,WeatherDisplay:10.37,2013-01-19 13:38:00,
2013-01-19 07:43:00,34.6,27.2,30.32,WSW,252,0.0,0.0,74,0.00,,,0.00,WeatherDisplay:10.37,2013-01-19 13:43:00,
2013-01-19 07:48:00,34.9,27.5,30.32,WSW,252,0.0,0.0,74,0.00,,,0.00,WeatherDisplay:10.37,2013-01-19 13:48:00,
2013-01-19 07:53:00,35.0,27.2,30.32,WSW,252,0.0,0.0,73,0.00,,,0.00,WeatherDisplay:10.37,2013-01-19 13:53:00,
2013-01-19 07:58:00,35.3,27.5,30.32,WSW,252,0.0,0.0,73,0.00,,,0.00,WeatherDisplay:10.37,2013-01-19 13:58:00,
2013-01-19 08:03:00,35.6,27.5,30.32,WSW,252,0.0,0.0,72,0.00,,,0.00,WeatherDisplay:10.37,2013-01-19 14:03:00,
2013-01-19 08:08:00,35.9,27.4,30.32,WSW,252,0.0,0.0,71,0.00,,,0.00,WeatherDisplay:10.37,2013-01-19 14:08:00,
2013-01-19 08:13:00,36.3,27.4,30.32,WSW,252,0.0,1.1,70,0.00,,,0.00,WeatherDisplay:10.37,2013-01-19 14:13:00,
2013-01-19 08:18:00,36.8,27.2,30.33,WSW,252,0.0,0.0,68,0.00,,,0.00,WeatherDisplay:10.37,2013-01-19 14:18:00,
2013-01-19 08:23:00,37.3,27.7,30.33,SW,222,0.0,0.0,68,0.00,,,0.00,WeatherDisplay:10.37,2013-01-19 14:23:00,
2013-01-19 08:28:00,37.8,27.1,30.33,SW,222,0.4,1.0,65,0.00,,,0.00,WeatherDisplay:10.37,2013-01-19 14:28:00,
2013-01-19 08:33:00,38.3,27.6,30.33,SW,222,0.0,1.1,65,0.00,,,0.00,WeatherDisplay:10.37,2013-01-19 14:33:00,
2013-01-19 08:38:00,38.6,27.1,30.33,SW,222,0.0,1.1,63,0.00,,,0.00,WeatherDisplay:10.37,2013-01-19 14:38:00,
2013-01-19 08:43:00,39.1,27.6,30.33,SSW,194,0.0,2.3,63,0.00,,,0.00,WeatherDisplay:10.37,2013-01-19 14:43:00,
2013-01-19 08:48:00,39.3,27.4,30.33,South,171,0.0,0.0,62,0.00,,,0.00,WeatherDisplay:10.37,2013-01-19 14:48:00,
2013-01-19 08:53:00,39.6,27.6,30.33,SW,232,0.9,3.5,62,0.00,,,0.00,WeatherDisplay:10.37,2013-01-19 14:53:00,
2013-01-19 08:58:00,39.9,27.9,30.33,West,275,0.8,3.5,62,0.00,,,0.00,WeatherDisplay:10.37,2013-01-19 14:58:00,
2013-01-19 09:03:00,40.2,27.4,30.34,South,171,0.0,1.1,60,0.00,,,0.00,WeatherDisplay:10.37,2013-01-19 15:03:00,
2013-01-19 09:08:00,40.5,27.7,30.34,SW,217,0.7,3.5,60,0.00,,,0.00,WeatherDisplay:10.37,2013-01-19 15:08:00,
2013-01-19 09:13:00,40.8,28.0,30.34,SW,217,0.5,3.5,60,0.00,,,0.00,WeatherDisplay:10.37,2013-01-19 15:13:00,
2013-01-19 09:18:00,41.1,27.9,30.34,West,275,0.7,3.5,59,0.00,,,0.00,WeatherDisplay:10.37,2013-01-19 15:18:00,
2013-01-19 09:23:00,41.2,28.4,30.34,SW,221,1.3,2.3,60,0.00,,,0.00,WeatherDisplay:10.37,2013-01-19 15:23:00,
2013-01-19 09:28:00,41.5,28.2,30.34,SW,221,0.0,0.0,59,0.00,,,0.00,WeatherDisplay:10.37,2013-01-19 15:28:00,
2013-01-19 09:33:00,41.8,28.5,30.34,SW,221,0.0,0.0,59,0.00,,,0.00,WeatherDisplay:10.37,2013-01-19 15:33:00,
2013-01-19 09:38:00,42.2,28.0,30.34,SW,221,1.8,5.8,57,0.00,,,0.00,WeatherDisplay:10.37,2013-01-19 15:38:00,
2013-01-19 09:43:00,42.8,28.6,30.34,South,190,1.6,3.5,57,0.00,,,0.00,WeatherDisplay:10.37,2013-01-19 15:43:00,
2013-01-19 09:48:00,43.3,29.5,30.33,South,170,0.5,2.3,58,0.00,,,0.00,WeatherDisplay:10.37,2013-01-19 15:48:00,
2013-01-19 09:53:00,43.9,29.6,30.33,SW,228,0.0,3.5,57,0.00,,,0.00,WeatherDisplay:10.37,2013-01-19 15:53:00,
2013-01-19 09:58:00,44.5,29.8,30.33,SW,227,0.1,4.6,56,0.00,,,0.00,WeatherDisplay:10.37,2013-01-19 15:58:00,
2013-01-19 10:03:00,45.1,29.9,30.33,SW,214,0.0,2.3,55,0.00,,,0.00,WeatherDisplay:10.37,2013-01-19 16:03:00,
2013-01-19 10:08:00,45.5,31.1,30.33,SW,214,0.2,2.0,57,0.00,,,0.00,WeatherDisplay:10.37,2013-01-19 16:08:00,
2013-01-19 10:13:00,46.0,29.3,30.33,South,190,0.5,5.8,52,0.00,,,0.00,WeatherDisplay:10.37,2013-01-19 16:13:00,
2013-01-19 10:18:00,46.4,28.8,30.33,SSE,165,3.9,5.8,50,0.00,,,0.00,WeatherDisplay:10.37,2013-01-19 16:18:00,
2013-01-19 10:23:00,46.8,30.6,30.33,SSW,197,3.3,4.6,53,0.00,,,0.00,WeatherDisplay:10.37,2013-01-19 16:23:00,
2013-01-19 10:28:00,47.4,29.7,30.33,SSW,205,2.1,3.0,50,0.00,,,0.00,WeatherDisplay:10.37,2013-01-19 16:28:00,
2013-01-19 10:33:00,48.2,29.9,30.32,SW,219,2.2,3.5,49,0.00,,,0.00,WeatherDisplay:10.37,2013-01-19 16:33:00,
2013-01-19 10:38:00,48.8,30.0,30.32,South,191,2.5,5.0,48,0.00,,,0.00,WeatherDisplay:10.37,2013-01-19 16:38:00,
2013-01-19 10:43:00,49.2,29.8,30.32,SSW,201,1.5,6.9,47,0.00,,,0.00,WeatherDisplay:10.37,2013-01-19 16:43:00,
2013-01-19 10:48:00,49.6,30.7,30.31,SE,142,1.4,3.5,48,0.00,,,0.00,WeatherDisplay:10.37,2013-01-19 16:48:00,
2013-01-19 10:53:00,49.6,29.6,30.31,South,182,2.5,4.6,46,0.00,,,0.00,WeatherDisplay:10.37,2013-01-19 16:53:00,
2013-01-19 10:58:00,50.1,30.1,30.31,South,177,1.5,3.5,46,0.00,,,0.00,WeatherDisplay:10.37,2013-01-19 16:58:00,
2013-01-19 11:03:00,50.5,29.4,30.30,SSE,166,2.9,5.8,44,0.00,,,0.00,WeatherDisplay:10.37,2013-01-19 17:03:00,
2013-01-19 11:09:00,50.7,30.1,30.30,South,184,1.8,8.1,45,0.00,,,0.00,WeatherDisplay:10.37,2013-01-19 17:09:00,
2013-01-19 11:16:00,51.1,29.4,30.30,SW,224,2.9,5.0,43,0.00,,,0.00,WeatherDisplay:10.37,2013-01-19 17:16:00,
2013-01-19 11:21:00,51.7,30.5,30.30,SW,236,0.7,3.5,44,0.00,,,0.00,WeatherDisplay:10.37,2013-01-19 17:21:00,
2013-01-19 11:26:00,52.2,30.9,30.30,SSE,163,0.2,5.8,44,0.00,,,0.00,WeatherDisplay:10.37,2013-01-19 17:26:00,
2013-01-19 11:31:00,52.8,30.3,30.28,South,175,1.2,4.6,42,0.00,,,0.00,WeatherDisplay:10.37,2013-01-19 17:31:00,
2013-01-19 11:36:00,53.2,31.3,30.28,ESE,114,0.0,1.1,43,0.00,,,0.00,WeatherDisplay:10.37,2013-01-19 17:36:00,
2013-01-19 11:41:00,53.5,33.2,30.28,SSW,205,0.9,5.0,46,0.00,,,0.00,WeatherDisplay:10.37,2013-01-19 17:41:00,
2013-01-19 11:47:00,53.6,31.0,30.27,ESE,115,3.8,8.0,42,0.00,,,0.00,WeatherDisplay:10.37,2013-01-19 17:47:00,
2013-01-19 11:52:00,53.5,32.7,30.27,SW,222,0.4,2.3,45,0.00,,,0.00,WeatherDisplay:10.37,2013-01-19 17:52:00,
2013-01-19 11:57:00,53.8,32.4,30.27,SW,215,0.0,3.5,44,0.00,,,0.00,WeatherDisplay:10.37,2013-01-19 17:57:00,
2013-01-19 12:04:00,54.4,29.3,30.25,WSW,241,0.4,5.8,38,0.00,,,0.00,WeatherDisplay:10.37,2013-01-19 18:04:00,
2013-01-19 12:09:00,54.7,30.8,30.25,SSW,194,2.5,5.8,40,0.00,,,0.00,WeatherDisplay:10.37,2013-01-19 18:09:00,
2013-01-19 12:14:00,54.7,33.8,30.25,ESE,123,0.0,3.5,45,0.00,,,0.00,WeatherDisplay:10.37,2013-01-19 18:14:00,
2013-01-19 12:19:00,54.4,32.3,30.25,SSW,207,0.1,3.5,43,0.00,,,0.00,WeatherDisplay:10.37,2013-01-19 18:19:00,
2013-01-19 12:24:00,54.4,30.6,30.25,SSW,195,0.0,1.1,40,0.00,,,0.00,WeatherDisplay:10.37,2013-01-19 18:24:00,
2013-01-19 12:30:00,54.8,30.9,30.24,WSW,250,2.1,6.0,40,0.00,,,0.00,WeatherDisplay:10.37,2013-01-19 18:30:00,
2013-01-19 12:35:00,55.1,29.3,30.24,SSW,207,2.5,4.0,37,0.00,,,0.00,WeatherDisplay:10.37,2013-01-19 18:35:00,
2013-01-19 12:40:00,55.3,32.0,30.24,SSW,194,1.8,4.0,41,0.00,,,0.00,WeatherDisplay:10.37,2013-01-19 18:40:00,
2013-01-19 12:45:00,55.3,29.4,30.23,WSW,258,3.9,5.0,37,0.00,,,0.00,WeatherDisplay:10.37,2013-01-19 18:45:00,
2013-01-19 12:50:00,55.3,30.7,30.23,SW,235,1.5,3.5,39,0.00,,,0.00,WeatherDisplay:10.37,2013-01-19 18:50:00,
2013-01-19 12:55:00,55.4,29.5,30.23,West,262,3.5,4.6,37,0.00,,,0.00,WeatherDisplay:10.37,2013-01-19 18:55:00,
2013-01-19 13:01:00,55.6,29.7,30.22,South,180,1.1,6.9,37,0.00,,,0.00,WeatherDisplay:10.37,2013-01-19 19:01:00,
2013-01-19 13:06:00,55.7,30.5,30.22,SW,236,1.0,5.8,38,0.00,,,0.00,WeatherDisplay:10.37,2013-01-19 19:06:00,
2013-01-19 13:11:00,56.2,30.2,30.22,South,188,4.9,7.0,37,0.00,,,0.00,WeatherDisplay:10.37,2013-01-19 19:11:00,
2013-01-19 13:17:00,56.5,31.2,30.21,SW,226,0.3,5.8,38,0.00,,,0.00,WeatherDisplay:10.37,2013-01-19 19:17:00,
2013-01-19 13:22:00,56.7,29.3,30.21,SW,227,1.1,4.0,35,0.00,,,0.00,WeatherDisplay:10.37,2013-01-19 19:22:00,
2013-01-19 13:27:00,56.6,29.2,30.21,SSW,206,0.8,3.5,35,0.00,,,0.00,WeatherDisplay:10.37,2013-01-19 19:27:00,
2013-01-19 13:32:00,56.7,29.3,30.21,South,169,0.0,4.0,35,0.00,,,0.00,WeatherDisplay:10.37,2013-01-19 19:32:00,
2013-01-19 13:37:00,56.9,29.5,30.21,SW,235,0.0,1.1,35,0.00,,,0.00,WeatherDisplay:10.37,2013-01-19 19:37:00,
2013-01-19 13:42:00,57.3,33.8,30.21,SSW,203,0.0,1.1,41,0.00,,,0.00,WeatherDisplay:10.37,2013-01-19 19:42:00,
2013-01-19 13:47:00,57.2,29.8,30.20,SSW,213,0.1,2.3,35,0.00,,,0.00,WeatherDisplay:10.37,2013-01-19 19:47:00,
2013-01-19 13:52:00,56.9,28.8,30.20,South,174,0.3,2.0,34,0.00,,,0.00,WeatherDisplay:10.37,2013-01-19 19:52:00,
2013-01-19 13:58:00,57.0,26.6,30.20,NNW,330,1.0,3.5,31,0.00,,,0.00,WeatherDisplay:10.37,2013-01-19 19:58:00,
2013-01-19 14:03:00,57.5,29.3,30.20,SSW,192,3.1,4.6,34,0.00,,,0.00,WeatherDisplay:10.37,2013-01-19 20:03:00,
2013-01-19 14:08:00,57.3,32.5,30.20,SSW,199,0.3,2.0,39,0.00,,,0.00,WeatherDisplay:10.37,2013-01-19 20:08:00,
2013-01-19 14:14:00,57.5,30.0,30.20,SW,221,1.2,5.0,35,0.00,,,0.00,WeatherDisplay:10.37,2013-01-19 20:14:00,
2013-01-19 14:19:00,57.6,30.8,30.19,East,87,0.1,4.6,36,0.00,,,0.00,WeatherDisplay:10.37,2013-01-19 20:19:00,
2013-01-19 14:24:00,57.5,28.6,30.19,SSW,195,3.1,4.6,33,0.00,,,0.00,WeatherDisplay:10.37,2013-01-19 20:24:00,
2013-01-19 14:29:00,57.5,28.6,30.18,SSW,212,0.7,3.5,33,0.00,,,0.00,WeatherDisplay:10.37,2013-01-19 20:29:00,
2013-01-19 14:35:00,56.9,31.5,30.18,SE,135,0.2,3.5,38,0.00,,,0.00,WeatherDisplay:10.37,2013-01-19 20:35:00,
2013-01-19 14:40:00,56.7,30.7,30.18,South,182,1.3,4.0,37,0.00,,,0.00,WeatherDisplay:10.37,2013-01-19 20:40:00,
2013-01-19 14:45:00,57.0,31.6,30.18,SE,143,0.0,2.3,38,0.00,,,0.00,WeatherDisplay:10.37,2013-01-19 20:45:00,
2013-01-19 14:50:00,57.0,31.0,30.18,South,179,0.4,3.0,37,0.00,,,0.00,WeatherDisplay:10.37,2013-01-19 20:50:00,
2013-01-19 14:55:00,57.6,30.1,30.18,SW,231,1.0,4.0,35,0.00,,,0.00,WeatherDisplay:10.37,2013-01-19 20:55:00,
2013-01-19 15:01:00,58.1,29.8,30.18,SSW,196,0.2,3.5,34,0.00,,,0.00,WeatherDisplay:10.37,2013-01-19 21:01:00,
2013-01-19 15:06:00,57.6,32.2,30.18,SSW,196,0.0,0.0,38,0.00,,,0.00,WeatherDisplay:10.37,2013-01-19 21:06:00,
2013-01-19 15:11:00,56.7,29.3,30.18,SSW,196,0.0,1.1,35,0.00,,,0.00,WeatherDisplay:10.37,2013-01-19 21:11:00,
2013-01-19 15:17:00,56.5,31.2,30.18,SSW,196,0.1,3.5,38,0.00,,,0.00,WeatherDisplay:10.37,2013-01-19 21:17:00,
2013-01-19 15:22:00,57.0,30.3,30.18,South,188,2.5,4.0,36,0.00,,,0.00,WeatherDisplay:10.37,2013-01-19 21:22:00,
2013-01-19 15:27:00,57.2,31.1,30.18,SSW,192,1.1,3.5,37,0.00,,,0.00,WeatherDisplay:10.37,2013-01-19 21:27:00,
2013-01-19 15:32:00,56.7,30.7,30.18,SSW,192,0.1,3.5,37,0.00,,,0.00,WeatherDisplay:10.37,2013-01-19 21:32:00,
2013-01-19 15:38:00,56.6,30.6,30.18,SW,231,0.8,2.3,37,0.00,,,0.00,WeatherDisplay:10.37,2013-01-19 21:38:00,
2013-01-19 15:43:00,56.2,30.9,30.18,SW,229,0.0,1.1,38,0.00,,,0.00,WeatherDisplay:10.37,2013-01-19 21:43:00,
2013-01-19 15:48:00,55.7,28.4,30.18,SW,229,0.4,2.3,35,0.00,,,0.00,WeatherDisplay:10.37,2013-01-19 21:48:00,
2013-01-19 15:53:00,54.8,28.3,30.18,South,177,0.0,1.0,36,0.00,,,0.00,WeatherDisplay:10.37,2013-01-19 21:53:00,
2013-01-19 15:58:00,54.1,33.8,30.18,South,178,0.0,0.0,46,0.00,,,0.00,WeatherDisplay:10.37,2013-01-19 21:58:00,
2013-01-19 16:03:00,53.5,30.4,30.18,SSW,210,0.2,3.5,41,0.00,,,0.00,WeatherDisplay:10.37,2013-01-19 22:03:00,
2013-01-19 16:08:00,53.1,30.6,30.18,SSW,210,0.1,1.1,42,0.00,,,0.00,WeatherDisplay:10.37,2013-01-19 22:08:00,
2013-01-19 16:13:00,52.6,31.8,30.18,SSW,210,0.0,0.0,45,0.00,,,0.00,WeatherDisplay:10.37,2013-01-19 22:13:00,
2013-01-19 16:19:00,52.0,30.7,30.17,SSW,210,0.0,0.0,44,0.00,,,0.00,WeatherDisplay:10.37,2013-01-19 22:19:00,
2013-01-19 16:24:00,51.9,30.1,30.17,SSW,210,0.4,1.1,43,0.00,,,0.00,WeatherDisplay:10.37,2013-01-19 22:24:00,
2013-01-19 16:29:00,51.7,30.5,30.17,SSW,210,0.0,0.0,44,0.00,,,0.00,WeatherDisplay:10.37,2013-01-19 22:29:00,
2013-01-19 16:34:00,51.6,32.0,30.17,SSW,210,0.0,1.0,47,0.00,,,0.00,WeatherDisplay:10.37,2013-01-19 22:34:00,
2013-01-19 16:39:00,51.3,30.7,30.17,WSW,254,0.0,3.5,45,0.00,,,0.00,WeatherDisplay:10.37,2013-01-19 22:39:00,
2013-01-19 16:44:00,51.0,33.0,30.17,WSW,257,0.0,0.0,50,0.00,,,0.00,WeatherDisplay:10.37,2013-01-19 22:44:00,
2013-01-19 16:49:00,50.5,33.5,30.17,WSW,257,0.0,0.0,52,0.00,,,0.00,WeatherDisplay:10.37,2013-01-19 22:49:00,
2013-01-19 16:55:00,49.9,32.0,30.17,WSW,257,0.0,0.0,50,0.00,,,0.00,WeatherDisplay:10.37,2013-01-19 22:55:00,
2013-01-19 17:00:00,49.4,31.0,30.17,WSW,257,0.0,0.0,49,0.00,,,0.00,WeatherDisplay:10.37,2013-01-19 23:00:00,
2013-01-19 17:05:00,48.6,30.8,30.17,WSW,257,0.0,0.0,50,0.00,,,0.00,WeatherDisplay:10.37,2013-01-19 23:05:00,
2013-01-19 17:11:00,48.0,30.7,30.17,WSW,257,0.0,0.0,51,0.00,,,0.00,WeatherDisplay:10.37,2013-01-19 23:11:00,
2013-01-19 17:17:00,47.1,30.8,30.16,WSW,257,0.0,0.0,53,0.00,,,0.00,WeatherDisplay:10.37,2013-01-19 23:17:00,
2013-01-19 17:22:00,46.5,31.6,30.16,WSW,257,0.0,0.0,56,0.00,,,0.00,WeatherDisplay:10.37,2013-01-19 23:22:00,
2013-01-19 17:27:00,46.0,32.5,30.16,WSW,257,0.0,0.0,59,0.00,,,0.00,WeatherDisplay:10.37,2013-01-19 23:27:00,
2013-01-19 17:33:00,45.4,31.9,30.16,WSW,257,0.0,0.0,59,0.00,,,0.00,WeatherDisplay:10.37,2013-01-19 23:33:00,
2013-01-19 17:38:00,44.8,31.3,30.16,WSW,257,0.0,0.0,59,0.00,,,0.00,WeatherDisplay:10.37,2013-01-19 23:38:00,
2013-01-19 17:43:00,44.3,31.3,30.16,WSW,257,0.0,0.0,60,0.00,,,0.00,WeatherDisplay:10.37,2013-01-19 23:43:00,
2013-01-19 17:48:00,43.9,31.3,30.17,WSW,257,0.0,0.0,61,0.00,,,0.00,WeatherDisplay:10.37,2013-01-19 23:48:00,
2013-01-19 17:54:00,43.6,31.4,30.17,WSW,257,0.0,0.0,62,0.00,,,0.00,WeatherDisplay:10.37,2013-01-19 23:54:00,
2013-01-19 17:59:00,43.3,31.9,30.17,WSW,257,0.0,0.0,64,0.00,,,0.00,WeatherDisplay:10.37,2013-01-19 23:59:00,
2013-01-19 18:05:00,43.1,32.1,30.17,WSW,257,0.0,0.0,65,0.00,,,0.00,WeatherDisplay:10.37,2013-01-20 00:05:00,
2013-01-19 18:10:00,42.9,32.7,30.17,WSW,257,0.0,0.0,67,0.00,,,0.00,WeatherDisplay:10.37,2013-01-20 00:10:00,
2013-01-19 18:15:00,42.8,33.0,30.17,WSW,257,0.0,0.0,68,0.00,,,0.00,WeatherDisplay:10.37,2013-01-20 00:15:00,
2013-01-19 18:20:00,42.6,32.8,30.17,WSW,257,0.0,0.0,68,0.00,,,0.00,WeatherDisplay:10.37,2013-01-20 00:20:00,
2013-01-19 18:25:00,42.5,32.7,30.17,WSW,257,0.0,0.0,68,0.00,,,0.00,WeatherDisplay:10.37,2013-01-20 00:25:00,
2013-01-19 18:30:00,42.2,31.6,30.17,WSW,257,0.0,0.0,66,0.00,,,0.00,WeatherDisplay:10.37,2013-01-20 00:30:00,
2013-01-19 18:35:00,42.1,31.2,30.17,WSW,257,0.0,0.0,65,0.00,,,0.00,WeatherDisplay:10.37,2013-01-20 00:35:00,
2013-01-19 18:40:00,42.1,31.6,30.17,WSW,257,0.0,0.0,66,0.00,,,0.00,WeatherDisplay:10.37,2013-01-20 00:40:00,
2013-01-19 18:45:00,41.9,31.7,30.17,WSW,257,0.0,0.0,67,0.00,,,0.00,WeatherDisplay:10.37,2013-01-20 00:45:00,
2013-01-19 18:50:00,41.9,32.1,30.17,WSW,257,0.0,0.0,68,0.00,,,0.00,WeatherDisplay:10.37,2013-01-20 00:50:00,
2013-01-19 18:55:00,41.8,31.6,30.17,WSW,257,0.0,0.0,67,0.00,,,0.00,WeatherDisplay:10.37,2013-01-20 00:55:00,
2013-01-19 19:01:00,41.9,32.1,30.18,WSW,257,0.0,0.0,68,0.00,,,0.00,WeatherDisplay:10.37,2013-01-20 01:01:00,
2013-01-19 19:07:00,41.9,32.1,30.18,WSW,257,0.0,0.0,68,0.00,,,0.00,WeatherDisplay:10.37,2013-01-20 01:07:00,
2013-01-19 19:12:00,41.9,31.7,30.18,WSW,257,0.0,0.0,67,0.00,,,0.00,WeatherDisplay:10.37,2013-01-20 01:12:00,
2013-01-19 19:17:00,41.8,32.4,30.18,WSW,257,0.0,0.0,69,0.00,,,0.00,WeatherDisplay:10.37,2013-01-20 01:17:00,
2013-01-19 19:23:00,41.8,32.4,30.18,WSW,257,0.0,0.0,69,0.00,,,0.00,WeatherDisplay:10.37,2013-01-20 01:23:00,
2013-01-19 19:28:00,41.5,31.7,30.18,WSW,257,0.0,0.0,68,0.00,,,0.00,WeatherDisplay:10.37,2013-01-20 01:28:00,
2013-01-19 19:33:00,41.5,31.4,30.18,WSW,257,0.0,0.0,67,0.00,,,0.00,WeatherDisplay:10.37,2013-01-20 01:33:00,
2013-01-19 19:38:00,41.6,32.2,30.18,WSW,257,0.0,0.0,69,0.00,,,0.00,WeatherDisplay:10.37,2013-01-20 01:38:00,
2013-01-19 19:43:00,41.8,32.4,30.18,WSW,257,0.0,0.0,69,0.00,,,0.00,WeatherDisplay:10.37,2013-01-20 01:43:00,
2013-01-19 19:48:00,41.6,31.8,30.17,WSW,257,0.0,0.0,68,0.00,,,0.00,WeatherDisplay:10.37,2013-01-20 01:48:00,
2013-01-19 19:54:00,41.5,32.1,30.17,WSW,257,0.0,0.0,69,0.00,,,0.00,WeatherDisplay:10.37,2013-01-20 01:54:00,
2013-01-19 19:59:00,41.3,31.5,30.18,WSW,257,0.0,0.0,68,0.00,,,0.00,WeatherDisplay:10.37,2013-01-20 01:59:00,
2013-01-19 20:04:00,41.2,31.4,30.18,WSW,257,0.0,0.0,68,0.00,,,0.00,WeatherDisplay:10.37,2013-01-20 02:04:00,
2013-01-19 20:09:00,41.2,31.4,30.18,WSW,257,0.0,0.0,68,0.00,,,0.00,WeatherDisplay:10.37,2013-01-20 02:09:00,
2013-01-19 20:14:00,41.1,31.3,30.18,WSW,257,0.0,0.0,68,0.00,,,0.00,WeatherDisplay:10.37,2013-01-20 02:14:00,
2013-01-19 20:19:00,41.3,32.6,30.18,WSW,257,0.1,1.1,71,0.00,,,0.00,WeatherDisplay:10.37,2013-01-20 02:19:00,
2013-01-19 20:24:00,41.6,32.9,30.18,WSW,257,0.0,0.0,71,0.00,,,0.00,WeatherDisplay:10.37,2013-01-20 02:24:00,
2013-01-19 20:29:00,41.5,32.4,30.17,WSW,257,0.0,0.0,70,0.00,,,0.00,WeatherDisplay:10.37,2013-01-20 02:29:00,
2013-01-19 20:35:00,41.5,32.4,30.17,WSW,257,0.0,0.0,70,0.00,,,0.00,WeatherDisplay:10.37,2013-01-20 02:35:00,
2013-01-19 20:40:00,41.5,32.1,30.17,WSW,257,0.0,0.0,69,0.00,,,0.00,WeatherDisplay:10.37,2013-01-20 02:40:00,
2013-01-19 20:47:00,41.8,31.6,30.17,WSW,248,0.0,3.5,67,0.00,,,0.00,WeatherDisplay:10.37,2013-01-20 02:47:00,
2013-01-19 20:53:00,42.5,32.7,30.17,SSW,203,0.0,3.5,68,0.00,,,0.00,WeatherDisplay:10.37,2013-01-20 02:53:00,
2013-01-19 20:58:00,42.8,33.0,30.17,SSW,203,0.0,0.0,68,0.00,,,0.00,WeatherDisplay:10.37,2013-01-20 02:58:00,
2013-01-19 21:05:00,42.8,33.0,30.17,SSW,203,0.0,0.0,68,0.00,,,0.00,WeatherDisplay:10.37,2013-01-20 03:05:00,
2013-01-19 21:10:00,42.6,32.4,30.17,SSW,203,0.0,0.0,67,0.00,,,0.00,WeatherDisplay:10.37,2013-01-20 03:10:00,
2013-01-19 21:15:00,42.8,32.2,30.17,SSW,212,0.3,3.5,66,0.00,,,0.00,WeatherDisplay:10.37,2013-01-20 03:15:00,
2013-01-19 21:20:00,42.9,33.1,30.17,SSW,212,0.0,0.0,68,0.00,,,0.00,WeatherDisplay:10.37,2013-01-20 03:20:00,
2013-01-19 21:25:00,42.9,33.1,30.17,SSW,212,0.0,1.1,68,0.00,,,0.00,WeatherDisplay:10.37,2013-01-20 03:25:00,
2013-01-19 21:31:00,43.1,33.3,30.16,SSW,212,0.0,0.0,68,0.00,,,0.00,WeatherDisplay:10.37,2013-01-20 03:31:00,
2013-01-19 21:36:00,43.1,33.3,30.16,SSW,212,0.0,0.0,68,0.00,,,0.00,WeatherDisplay:10.37,2013-01-20 03:36:00,
2013-01-19 21:41:00,43.1,32.9,30.16,SSW,212,0.0,1.1,67,0.00,,,0.00,WeatherDisplay:10.37,2013-01-20 03:41:00,
2013-01-19 21:46:00,42.8,32.6,30.16,SSW,212,0.0,0.0,67,0.00,,,0.00,WeatherDisplay:10.37,2013-01-20 03:46:00,
2013-01-19 21:52:00,42.6,32.4,30.16,SSW,212,0.0,0.0,67,0.00,,,0.00,WeatherDisplay:10.37,2013-01-20 03:52:00,
2013-01-19 21:57:00,42.5,32.7,30.16,SSW,212,0.0,0.0,68,0.00,,,0.00,WeatherDisplay:10.37,2013-01-20 03:57:00,
2013-01-19 22:02:00,42.3,32.5,30.16,SSW,212,0.0,0.0,68,0.00,,,0.00,WeatherDisplay:10.37,2013-01-20 04:02:00,
2013-01-19 22:07:00,42.2,32.4,30.16,SSW,212,0.0,0.0,68,0.00,,,0.00,WeatherDisplay:10.37,2013-01-20 04:07:00,
2013-01-19 22:12:00,42.1,32.3,30.16,SSW,212,0.0,0.0,68,0.00,,,0.00,WeatherDisplay:10.37,2013-01-20 04:12:00,
2013-01-19 22:18:00,42.2,32.8,30.16,SSW,212,0.0,1.1,69,0.00,,,0.00,WeatherDisplay:10.37,2013-01-20 04:18:00,
2013-01-19 22:23:00,42.3,32.8,30.16,South,184,0.0,0.0,69,0.00,,,0.00,WeatherDisplay:10.37,2013-01-20 04:23:00,
2013-01-19 22:28:00,42.3,32.5,30.16,South,184,0.0,1.0,68,0.00,,,0.00,WeatherDisplay:10.37,2013-01-20 04:28:00,
2013-01-19 22:33:00,42.5,31.6,30.16,South,184,0.0,0.0,65,0.00,,,0.00,WeatherDisplay:10.37,2013-01-20 04:33:00,
2013-01-19 22:39:00,42.6,32.0,30.16,South,184,0.0,0.0,66,0.00,,,0.00,WeatherDisplay:10.37,2013-01-20 04:39:00,
2013-01-19 22:44:00,42.5,31.9,30.15,South,184,0.0,0.0,66,0.00,,,0.00,WeatherDisplay:10.37,2013-01-20 04:44:00,
2013-01-19 22:49:00,42.5,32.3,30.15,South,184,0.0,0.0,67,0.00,,,0.00,WeatherDisplay:10.37,2013-01-20 04:49:00,
2013-01-19 22:54:00,42.3,32.5,30.15,South,184,0.0,0.0,68,0.00,,,0.00,WeatherDisplay:10.37,2013-01-20 04:54:00,
2013-01-19 22:59:00,42.2,32.8,30.15,South,184,0.0,0.0,69,0.00,,,0.00,WeatherDisplay:10.37,2013-01-20 04:59:00,
2013-01-19 23:00:00,42.2,32.8,30.15,South,184,0.0,0.0,69,0.00,,,0.00,WeatherDisplay:10.37,2013-01-20 05:00:00,
2013-01-19 23:01:00,42.2,33.1,30.15,South,184,0.0,0.0,70,0.00,,,0.00,WeatherDisplay:10.37,2013-01-20 05:01:00,
2013-01-19 23:03:00,42.1,33.0,30.15,South,184,0.0,0.0,70,0.00,,,0.00,WeatherDisplay:10.37,2013-01-20 05:03:00,
2013-01-19 23:04:00,42.1,33.0,30.15,South,184,0.1,1.1,70,0.00,,,0.00,WeatherDisplay:10.37,2013-01-20 05:04:00,
2013-01-19 23:09:00,41.8,32.4,30.15,South,184,0.0,0.0,69,0.00,,,0.00,WeatherDisplay:10.37,2013-01-20 05:09:00,
2013-01-19 23:14:00,41.6,32.9,30.14,South,184,0.0,0.0,71,0.00,,,0.00,WeatherDisplay:10.37,2013-01-20 05:14:00,
2013-01-19 23:19:00,41.6,32.9,30.14,South,184,0.0,3.5,71,0.00,,,0.00,WeatherDisplay:10.37,2013-01-20 05:19:00,
2013-01-19 23:24:00,41.5,32.8,30.14,South,184,0.0,1.0,71,0.00,,,0.00,WeatherDisplay:10.37,2013-01-20 05:24:00,
2013-01-19 23:29:00,41.5,32.8,30.14,South,184,0.0,0.0,71,0.00,,,0.00,WeatherDisplay:10.37,2013-01-20 05:29:00,
2013-01-19 23:34:00,41.8,32.7,30.14,South,184,0.1,2.3,70,0.00,,,0.00,WeatherDisplay:10.37,2013-01-20 05:34:00,
2013-01-19 23:39:00,41.8,32.7,30.14,South,184,0.0,0.0,70,0.00,,,0.00,WeatherDisplay:10.37,2013-01-20 05:39:00,
2013-01-19 23:44:00,41.8,33.1,30.14,South,184,0.0,0.0,71,0.00,,,0.00,WeatherDisplay:10.37,2013-01-20 05:44:00,
2013-01-19 23:49:00,41.8,32.7,30.14,South,184,0.0,0.0,70,0.00,,,0.00,WeatherDisplay:10.37,2013-01-20 05:49:00,
2013-01-19 23:54:00,42.1,33.7,30.14,South,184,0.0,0.0,72,0.00,,,0.00,WeatherDisplay:10.37,2013-01-20 05:54:00,
2013-01-19 23:59:00,42.2,33.8,30.14,South,184,0.0,0.0,72,0.00,,,0.00,WeatherDisplay:10.37,2013-01-20 05:59:00,